SL-16 DEB, 22474

Orbit data source: Space-Track

SL-16 DEB, 22474 is space debris in LEO originally from a launch on Fri, 25 Dec 1992 UTC launched from the Tyuratam Missile And Space Complex (TTMTR). Debris objects in space refer to the collection of defunct objects orbiting the Earth. Examples of debris include non-operational satellites, rocket bodies, and fragments generated from explosions, collisions, or faulty payload assembly.

Loading next visibility...
Identifier
22474, 1992-093FP
Orbit
LEO
Country
Flag of CISCIS
Related business
Manufacturer
Unknown
Mission
Spacecraft
Bus & Motor
Unknown
Mass
Unknown
Launch date (UTC)
1992-12-25 (33 years ago)
Launch vehicle
Unknown
Launch site
Tyuratam Missile And Space Complex (TTMTR)
Object type
Payload
Rocket body
Debris
Shape & HBR
Unknown shape, 0.1 m
Radar Cross Section
Small (<0.1 m²)

Expand to show TLE details & history
Last TLE update: 13 hours ago

TLE from 13 hours ago
0 SL-16 DEB
1 22474U 92093FP  26132.97523730  .00002464  00000-0  11481-2 0  9995
2 22474  71.2992 334.4979 0144809 202.4193 157.0564 14.16009986685356
Epoch: 2026-05-12T23:24Z
TLE epoch observation values (Epoch: 2026-05-12T23:24:20.502Z)
Latitude
-0.00005°
Longitude
112.67055°
Altitude
937.78 km
Speed
7.334 km/s
True Right ascension
22h 17m 59s
True Declination
0° 00' 00"
Sunlit
Object was in daylight at epoch
Visualization orbit readout
Latitude
Unknown
Longitude
Unknown
Altitude
Unknown
Speed
Unknown
Apparent Right ascension
Unknown
Apparent Declination
Unknown
Sunlit
N/A
Visualization observer readout
Local Sidereal Time
20:27:39
Azimuth
Unknown
Elevation
Unknown
Doppler factor
Unknown
Orbital elements
Apogee altitude
941.251 km
Perigee altitude
732.294 km
Semi-major axis
7,214.909 km
Eccentricity
0.01448
Inclination
71.2992°
RAAN
334.4979°
Arg. of periapsis
202.4193°
True anomaly
157.69265°
Mean anomaly
157.0564°
Eccentric anomaly
157.37557°
Mean motion
3.54158 °/min
Orbital period
101.65 mins
BSTAR
0.0011481
Loading maneuver chart data...
Computing Atmospheric mass density...
Loading historical data...
Loading historical data...
Loading historical data...
Loading historical data...
Loading historical data...
Loading historical data...
Loading historical data...

Documentation

Showing up to 5 results
|